User: anonymous
Location: Caltech
(34.1382°N, 118.1253°W)
Time: 16:29:42
(UTC-07:00)
Language:

GPS 2-04 Rocket1 - Orbit

View from above orbital plane
View from above orbital plane
View from above satellite
View from above satellite

Ground track
Ground track

The orbit data is extracted from the following two-line orbital elements,

1 20303U 89085B   14109.72140098  .00017162  00000-0  83894-3 0  7646
2 20303 035.6343 347.2189 0142297 134.8722 270.4785 15.08905206325054
Epoch (UTC): 19 April 2014 17:18:49
Eccentricity: 0.0142297
inclination: 35.6343°
perigee height: 441 km
apogee height: 638 km
right ascension of ascending node: 347.2189°
argument of perigee: 134.8722°
revolutions per day: 15.08905206
mean anomaly at epoch: 270.4785°
orbit number at epoch: 32505

The dashed part of the orbit path shows where the satellite is in the earth's shadow,  

DLR